contact:dominique.lefevre@mio.osupytheas.fr, maurice.libes@osupytheas.fr, didier.mallarino@osupytheas.fr
Project:EMSO http://www.emso-fr.org/EMSO-France
Depth: 2436.0 m
Title:EMSO Ligure Ouest : Data MII capteur MICROCAT
DateTime_Computer,Latitude,Longitude,Temperature,Conductivity,Pressure,DateTime_Instrument
DateTime_Computer,Latitude,Longitude,degC,S m-1,dbar,DateTime_Instrument
2022-01-08T00:03:00Z,42.805,6.029,13.3025,4.60090,2469.9,2022-1-08T02:04:30Z
2022-01-08T00:06:03Z,42.805,6.029,13.3033,4.60088,2469.914,2022-1-08T02:07:34Z
2022-01-08T00:09:06Z,42.805,6.029,13.3021,4.60084,2469.9,2022-1-08T02:10:37Z
2022-01-08T00:12:09Z,42.805,6.029,13.3021,4.60089,2469.9,2022-1-08T02:13:40Z
2022-01-08T00:15:13Z,42.805,6.029,13.3021,4.60096,2469.96,2022-1-08T02:16:43Z
2022-01-08T00:18:16Z,42.805,6.029,13.3030,4.60087,2469.923,2022-1-08T02:19:46Z
2022-01-08T00:21:19Z,42.805,6.029,13.3028,4.60061,2469.89,2022-1-08T02:22:49Z
2022-01-08T00:24:22Z,42.805,6.029,13.3027,4.60052,2469.9,2022-1-08T02:25:52Z
2022-01-08T00:27:25Z,42.805,6.029,13.3006,4.60053,2469.876,2022-1-08T02:28:55Z
2022-01-08T00:30:28Z,42.805,6.029,13.3027,4.60074,2469.914,2022-1-08T02:31:59Z
2022-01-08T00:33:31Z,42.805,6.029,13.3021,4.60095,2469.89,2022-1-08T02:35:02Z
2022-01-08T00:36:34Z,42.805,6.029,13.3047,4.60081,2469.867,2022-1-08T02:38:05Z
2022-01-08T00:39:38Z,42.805,6.029,13.3053,4.60081,2469.853,2022-1-08T02:41:08Z
2022-01-08T00:42:41Z,42.805,6.029,13.3021,4.60076,2469.89,2022-1-08T02:44:11Z
2022-01-08T00:45:44Z,42.805,6.029,13.3043,4.60119,2469.867,2022-1-08T02:47:14Z
2022-01-08T00:48:47Z,42.805,6.029,13.3031,4.60085,2469.876,2022-1-08T02:50:17Z
2022-01-08T00:51:50Z,42.805,6.029,13.3043,4.60119,2469.876,2022-1-08T02:53:20Z
2022-01-08T00:54:53Z,42.805,6.029,13.3032,4.60107,2469.867,2022-1-08T02:56:24Z
2022-01-08T00:57:56Z,42.805,6.029,13.3045,4.60084,2469.839,2022-1-08T02:59:27Z
2022-01-08T01:00:59Z,42.805,6.029,13.3014,4.60072,2469.853,2022-1-08T03:02:30Z
2022-01-08T01:04:02Z,42.805,6.029,13.3040,4.60090,2469.876,2022-1-08T03:05:33Z
2022-01-08T01:07:06Z,42.805,6.029,13.3032,4.60097,2469.853,2022-1-08T03:08:36Z
2022-01-08T01:10:09Z,42.805,6.029,13.3029,4.60096,2469.914,2022-1-08T03:11:39Z
2022-01-08T01:13:12Z,42.805,6.029,13.3024,4.60078,2469.853,2022-1-08T03:14:42Z
2022-01-08T01:16:15Z,42.805,6.029,13.3015,4.60081,2469.89,2022-1-08T03:17:45Z
2022-01-08T01:19:18Z,42.805,6.029,13.3027,4.60058,2469.867,2022-1-08T03:20:48Z
2022-01-08T01:22:21Z,42.805,6.029,13.3029,4.60078,2469.89,2022-1-08T03:23:52Z
2022-01-08T01:25:24Z,42.805,6.029,13.3026,4.60090,2469.876,2022-1-08T03:26:55Z
2022-01-08T01:28:27Z,42.805,6.029,13.3030,4.60101,2469.876,2022-1-08T03:29:58Z
2022-01-08T01:31:31Z,42.805,6.029,13.3039,4.60072,2469.867,2022-1-08T03:33:01Z
2022-01-08T01:34:34Z,42.805,6.029,13.3029,4.60085,2469.89,2022-1-08T03:36:04Z
2022-01-08T01:37:37Z,42.805,6.029,13.3031,4.60077,2469.876,2022-1-08T03:39:07Z
2022-01-08T01:40:40Z,42.805,6.029,13.3021,4.60084,2469.867,2022-1-08T03:42:10Z
2022-01-08T01:43:43Z,42.805,6.029,13.3019,4.60104,2469.89,2022-1-08T03:45:13Z
2022-01-08T01:46:46Z,42.805,6.029,13.3031,4.60074,2469.89,2022-1-08T03:48:17Z
2022-01-08T01:49:49Z,42.805,6.029,13.3010,4.60057,2469.89,2022-1-08T03:51:20Z
2022-01-08T01:52:52Z,42.805,6.029,13.3009,4.60075,2469.89,2022-1-08T03:54:23Z
2022-01-08T01:55:55Z,42.805,6.029,13.3032,4.60081,2469.89,2022-1-08T03:57:26Z
2022-01-08T01:58:59Z,42.805,6.029,13.3026,4.60062,2469.83,2022-1-08T04:00:29Z
2022-01-08T02:02:02Z,42.805,6.029,13.3024,4.60063,2469.83,2022-1-08T04:03:32Z
2022-01-08T02:05:05Z,42.805,6.029,13.3045,4.60081,2469.853,2022-1-08T04:06:35Z
2022-01-08T02:08:08Z,42.805,6.029,13.3022,4.60086,2469.867,2022-1-08T04:09:38Z
2022-01-08T02:11:11Z,42.805,6.029,13.3042,4.60097,2469.797,2022-1-08T04:12:41Z
2022-01-08T02:14:14Z,42.805,6.029,13.3051,4.60097,2469.914,2022-1-08T04:15:45Z
2022-01-08T02:17:17Z,42.805,6.029,13.3039,4.60120,2469.853,2022-1-08T04:18:48Z
2022-01-08T02:20:20Z,42.805,6.029,13.3022,4.60088,2469.844,2022-1-08T04:21:51Z
2022-01-08T02:23:24Z,42.805,6.029,13.3017,4.60074,2469.844,2022-1-08T04:24:54Z
2022-01-08T02:26:27Z,42.805,6.029,13.3021,4.60071,2469.89,2022-1-08T04:27:57Z
2022-01-08T02:29:30Z,42.805,6.029,13.3018,4.60102,2469.867,2022-1-08T04:31:00Z
2022-01-08T02:32:33Z,42.805,6.029,13.3021,4.60099,2469.853,2022-1-08T04:34:03Z
2022-01-08T02:35:36Z,42.805,6.029,13.3027,4.60101,2469.806,2022-1-08T04:37:06Z
2022-01-08T02:38:39Z,42.805,6.029,13.3043,4.60097,2469.867,2022-1-08T04:40:10Z
2022-01-08T02:41:42Z,42.805,6.029,13.3031,4.60096,2469.853,2022-1-08T04:43:13Z
2022-01-08T02:44:45Z,42.805,6.029,13.3041,4.60068,2469.867,2022-1-08T04:46:16Z
2022-01-08T02:47:48Z,42.805,6.029,13.3054,4.60084,2469.83,2022-1-08T04:49:19Z
2022-01-08T02:50:52Z,42.805,6.029,13.3023,4.60129,2469.867,2022-1-08T04:52:22Z
2022-01-08T02:53:55Z,42.805,6.029,13.3055,4.60098,2469.853,2022-1-08T04:55:25Z
2022-01-08T02:56:58Z,42.805,6.029,13.3069,4.60091,2469.853,2022-1-08T04:58:28Z
2022-01-08T03:00:01Z,42.805,6.029,13.3029,4.60062,2469.844,2022-1-08T05:01:31Z
2022-01-08T03:03:04Z,42.805,6.029,13.3003,4.60057,2469.853,2022-1-08T05:04:34Z
2022-01-08T03:06:07Z,42.805,6.029,13.3014,4.60069,2469.853,2022-1-08T05:07:38Z
2022-01-08T03:09:10Z,42.805,6.029,13.3013,4.60090,2469.806,2022-1-08T05:10:41Z
2022-01-08T03:12:13Z,42.805,6.029,13.3026,4.60109,2469.876,2022-1-08T05:13:44Z
2022-01-08T03:15:16Z,42.805,6.029,13.3033,4.60104,2469.806,2022-1-08T05:16:47Z
2022-01-08T03:18:20Z,42.805,6.029,13.3041,4.60088,2469.83,2022-1-08T05:19:50Z
2022-01-08T03:21:23Z,42.805,6.029,13.3043,4.60092,2469.853,2022-1-08T05:22:53Z
2022-01-08T03:24:26Z,42.805,6.029,13.3029,4.60108,2469.83,2022-1-08T05:25:56Z
2022-01-08T03:27:29Z,42.805,6.029,13.3019,4.60107,2469.876,2022-1-08T05:28:59Z
2022-01-08T03:30:32Z,42.805,6.029,13.3026,4.60112,2469.821,2022-1-08T05:32:03Z
2022-01-08T03:33:35Z,42.805,6.029,13.3019,4.60088,2469.83,2022-1-08T05:35:06Z
2022-01-08T03:36:38Z,42.805,6.029,13.3032,4.60098,2469.89,2022-1-08T05:38:09Z
2022-01-08T03:39:41Z,42.805,6.029,13.3016,4.60086,2469.83,2022-1-08T05:41:12Z
2022-01-08T03:42:45Z,42.805,6.029,13.3011,4.60046,2469.821,2022-1-08T05:44:15Z
2022-01-08T03:45:48Z,42.805,6.029,13.3004,4.60070,2469.83,2022-1-08T05:47:18Z
2022-01-08T03:48:51Z,42.805,6.029,13.3021,4.60091,2469.853,2022-1-08T05:50:21Z
2022-01-08T03:51:54Z,42.805,6.029,13.3024,4.60081,2469.83,2022-1-08T05:53:24Z
2022-01-08T03:54:57Z,42.805,6.029,13.3039,4.60089,2469.806,2022-1-08T05:56:27Z
2022-01-08T03:58:00Z,42.805,6.029,13.3039,4.60114,2469.806,2022-1-08T05:59:31Z
2022-01-08T04:01:03Z,42.805,6.029,13.3043,4.60102,2469.844,2022-1-08T06:02:34Z
2022-01-08T04:04:06Z,42.805,6.029,13.3045,4.60113,2469.83,2022-1-08T06:05:37Z
2022-01-08T04:07:09Z,42.805,6.029,13.3056,4.60096,2469.806,2022-1-08T06:08:40Z
2022-01-08T04:10:13Z,42.805,6.029,13.3040,4.60089,2469.83,2022-1-08T06:11:43Z
2022-01-08T04:13:16Z,42.805,6.029,13.3037,4.60079,2469.821,2022-1-08T06:14:46Z
2022-01-08T04:16:19Z,42.805,6.029,13.3031,4.60085,2469.821,2022-1-08T06:17:49Z
2022-01-08T04:19:22Z,42.805,6.029,13.3028,4.60090,2469.844,2022-1-08T06:20:52Z
2022-01-08T04:22:25Z,42.805,6.029,13.3031,4.60114,2469.806,2022-1-08T06:23:56Z
2022-01-08T04:25:28Z,42.805,6.029,13.3008,4.60107,2469.821,2022-1-08T06:26:59Z
2022-01-08T04:28:31Z,42.805,6.029,13.3021,4.60079,2469.83,2022-1-08T06:30:02Z
2022-01-08T04:31:34Z,42.805,6.029,13.3006,4.60108,2469.83,2022-1-08T06:33:05Z
2022-01-08T04:34:38Z,42.805,6.029,13.3009,4.60094,2469.844,2022-1-08T06:36:08Z
2022-01-08T04:37:41Z,42.805,6.029,13.3020,4.60109,2469.806,2022-1-08T06:39:11Z
2022-01-08T04:40:44Z,42.805,6.029,13.3034,4.60085,2469.806,2022-1-08T06:42:14Z
2022-01-08T04:43:47Z,42.805,6.029,13.3031,4.60082,2469.797,2022-1-08T06:45:17Z
2022-01-08T04:46:50Z,42.805,6.029,13.3040,4.60062,2469.83,2022-1-08T06:48:21Z
2022-01-08T04:49:53Z,42.805,6.029,13.3046,4.60067,2469.783,2022-1-08T06:51:24Z
2022-01-08T04:52:56Z,42.805,6.029,13.3057,4.60084,2469.806,2022-1-08T06:54:27Z
2022-01-08T04:55:59Z,42.805,6.029,13.3036,4.60125,2469.853,2022-1-08T06:57:30Z
2022-01-08T04:59:03Z,42.805,6.029,13.3029,4.60125,2469.806,2022-1-08T07:00:33Z
2022-01-08T05:02:06Z,42.805,6.029,13.3040,4.60151,2469.783,2022-1-08T07:03:36Z
2022-01-08T05:05:09Z,42.805,6.029,13.3029,4.60114,2469.783,2022-1-08T07:06:39Z
2022-01-08T05:08:12Z,42.805,6.029,13.3006,4.60173,2469.821,2022-1-08T07:09:42Z
2022-01-08T05:11:15Z,42.805,6.029,13.3010,4.60092,2469.83,2022-1-08T07:12:45Z
2022-01-08T05:14:18Z,42.805,6.029,13.3051,4.60090,2469.797,2022-1-08T07:15:49Z
2022-01-08T05:17:21Z,42.805,6.029,13.3015,4.60121,2469.821,2022-1-08T07:18:52Z
2022-01-08T05:20:24Z,42.805,6.029,13.3032,4.60132,2469.806,2022-1-08T07:21:55Z
2022-01-08T05:23:27Z,42.805,6.029,13.3043,4.60079,2469.821,2022-1-08T07:24:58Z
2022-01-08T05:26:31Z,42.805,6.029,13.3025,4.60102,2469.797,2022-1-08T07:28:01Z
2022-01-08T05:29:34Z,42.805,6.029,13.3031,4.60099,2469.821,2022-1-08T07:31:04Z
2022-01-08T05:32:37Z,42.805,6.029,13.3038,4.60079,2469.844,2022-1-08T07:34:07Z
2022-01-08T05:35:40Z,42.805,6.029,13.3039,4.60088,2469.797,2022-1-08T07:37:10Z
2022-01-08T05:38:43Z,42.805,6.029,13.3046,4.60052,2469.806,2022-1-08T07:40:14Z
2022-01-08T05:41:46Z,42.805,6.029,13.3039,4.60073,2469.806,2022-1-08T07:43:17Z
2022-01-08T05:44:49Z,42.805,6.029,13.3020,4.60079,2469.821,2022-1-08T07:46:20Z
2022-01-08T05:47:52Z,42.805,6.029,13.3036,4.60091,2469.83,2022-1-08T07:49:23Z
2022-01-08T05:50:56Z,42.805,6.029,13.3026,4.60070,2469.844,2022-1-08T07:52:26Z
2022-01-08T05:53:59Z,42.805,6.029,13.3043,4.60057,2469.821,2022-1-08T07:55:29Z
2022-01-08T05:57:02Z,42.805,6.029,13.3019,4.60062,2469.844,2022-1-08T07:58:32Z
2022-01-08T06:00:05Z,42.805,6.029,13.3014,4.60098,2469.821,2022-1-08T08:01:35Z
2022-01-08T06:03:08Z,42.805,6.029,13.3015,4.60099,2469.83,2022-1-08T08:04:38Z
2022-01-08T06:06:11Z,42.805,6.029,13.3011,4.60105,2469.806,2022-1-08T08:07:42Z
2022-01-08T06:09:14Z,42.805,6.029,13.3018,4.60135,2469.844,2022-1-08T08:10:45Z
2022-01-08T06:12:17Z,42.805,6.029,13.3008,4.60098,2469.844,2022-1-08T08:13:48Z
2022-01-08T06:15:20Z,42.805,6.029,13.3016,4.60122,2469.844,2022-1-08T08:16:51Z
2022-01-08T06:18:24Z,42.805,6.029,13.3015,4.60101,2469.844,2022-1-08T08:19:54Z
2022-01-08T06:21:27Z,42.805,6.029,13.3016,4.60076,2469.867,2022-1-08T08:22:57Z
2022-01-08T06:24:30Z,42.805,6.029,13.3011,4.60093,2469.853,2022-1-08T08:26:00Z
2022-01-08T06:27:33Z,42.805,6.029,13.3011,4.60112,2469.806,2022-1-08T08:29:03Z
2022-01-08T06:30:36Z,42.805,6.029,13.3026,4.60115,2469.83,2022-1-08T08:32:07Z
2022-01-08T06:33:39Z,42.805,6.029,13.3017,4.60122,2469.844,2022-1-08T08:35:10Z
2022-01-08T06:36:42Z,42.805,6.029,13.3027,4.60081,2469.83,2022-1-08T08:38:13Z
2022-01-08T06:39:45Z,42.805,6.029,13.3015,4.60099,2469.844,2022-1-08T08:41:16Z
2022-01-08T06:42:49Z,42.805,6.029,13.3029,4.60147,2469.806,2022-1-08T08:44:19Z
2022-01-08T06:45:52Z,42.805,6.029,13.3026,4.60079,2469.867,2022-1-08T08:47:22Z
2022-01-08T06:48:55Z,42.805,6.029,13.3018,4.60084,2469.867,2022-1-08T08:50:25Z
2022-01-08T06:51:58Z,42.805,6.029,13.3005,4.60095,2469.853,2022-1-08T08:53:28Z
2022-01-08T06:55:01Z,42.805,6.029,13.3006,4.60097,2469.853,2022-1-08T08:56:31Z
2022-01-08T06:58:04Z,42.805,6.029,13.3014,4.60068,2469.853,2022-1-08T08:59:35Z
2022-01-08T07:01:07Z,42.805,6.029,13.3014,4.60117,2469.867,2022-1-08T09:02:38Z
2022-01-08T07:04:10Z,42.805,6.029,13.3019,4.60051,2469.83,2022-1-08T09:05:41Z
2022-01-08T07:07:13Z,42.805,6.029,13.3015,4.60091,2469.853,2022-1-08T09:08:44Z
2022-01-08T07:10:17Z,42.805,6.029,13.3020,4.60128,2469.853,2022-1-08T09:11:47Z
2022-01-08T07:13:20Z,42.805,6.029,13.3014,4.60087,2469.914,2022-1-08T09:14:50Z
2022-01-08T07:16:23Z,42.805,6.029,13.3024,4.60113,2469.853,2022-1-08T09:17:53Z
2022-01-08T07:19:26Z,42.805,6.029,13.3014,4.60096,2469.83,2022-1-08T09:20:56Z
2022-01-08T07:22:29Z,42.805,6.029,13.3015,4.60077,2469.89,2022-1-08T09:24:00Z
2022-01-08T07:25:32Z,42.805,6.029,13.3026,4.60106,2469.876,2022-1-08T09:27:03Z
2022-01-08T07:28:35Z,42.805,6.029,13.3045,4.60079,2469.876,2022-1-08T09:30:06Z
2022-01-08T07:31:38Z,42.805,6.029,13.3017,4.60068,2469.9,2022-1-08T09:33:09Z
2022-01-08T07:34:42Z,42.805,6.029,13.3012,4.60083,2469.89,2022-1-08T09:36:12Z
2022-01-08T07:37:45Z,42.805,6.029,13.3032,4.60103,2469.876,2022-1-08T09:39:15Z
2022-01-08T07:40:48Z,42.805,6.029,13.3019,4.60077,2469.876,2022-1-08T09:42:18Z
2022-01-08T07:43:51Z,42.805,6.029,13.3009,4.60092,2469.914,2022-1-08T09:45:21Z
2022-01-08T07:46:54Z,42.805,6.029,13.3007,4.60087,2469.914,2022-1-08T09:48:24Z
2022-01-08T07:49:57Z,42.805,6.029,13.3019,4.60078,2469.9,2022-1-08T09:51:28Z
2022-01-08T07:53:00Z,42.805,6.029,13.3029,4.60093,2469.89,2022-1-08T09:54:31Z
2022-01-08T07:56:03Z,42.805,6.029,13.3012,4.60082,2469.867,2022-1-08T09:57:34Z
2022-01-08T07:59:06Z,42.805,6.029,13.3009,4.60087,2469.914,2022-1-08T10:00:37Z
2022-01-08T08:02:10Z,42.805,6.029,13.3012,4.60091,2469.839,2022-1-08T10:03:40Z
2022-01-08T08:05:13Z,42.805,6.029,13.3032,4.60069,2469.89,2022-1-08T10:06:43Z
2022-01-08T08:08:16Z,42.805,6.029,13.3010,4.60099,2469.89,2022-1-08T10:09:46Z
2022-01-08T08:11:19Z,42.805,6.029,13.3017,4.60080,2469.9,2022-1-08T10:12:49Z
2022-01-08T08:14:22Z,42.805,6.029,13.3008,4.60092,2469.914,2022-1-08T10:15:53Z
2022-01-08T08:17:25Z,42.805,6.029,13.3009,4.60103,2469.914,2022-1-08T10:18:56Z
2022-01-08T08:20:28Z,42.805,6.029,13.3015,4.60091,2469.876,2022-1-08T10:21:59Z
2022-01-08T08:23:31Z,42.805,6.029,13.3011,4.60098,2469.886,2022-1-08T10:25:02Z
2022-01-08T08:26:35Z,42.805,6.029,13.3019,4.60096,2469.9,2022-1-08T10:28:05Z
2022-01-08T08:29:38Z,42.805,6.029,13.3015,4.60109,2469.9,2022-1-08T10:31:08Z
2022-01-08T08:32:41Z,42.805,6.029,13.3021,4.60090,2469.96,2022-1-08T10:34:11Z
2022-01-08T08:35:44Z,42.805,6.029,13.3019,4.60073,2469.947,2022-1-08T10:37:14Z
2022-01-08T08:38:47Z,42.805,6.029,13.3022,4.60094,2469.947,2022-1-08T10:40:18Z
2022-01-08T08:41:50Z,42.805,6.029,13.3008,4.60089,2469.937,2022-1-08T10:43:21Z
2022-01-08T08:44:53Z,42.805,6.029,13.3011,4.60084,2469.9,2022-1-08T10:46:24Z
2022-01-08T08:47:56Z,42.805,6.029,13.3013,4.60099,2469.9,2022-1-08T10:49:27Z
2022-01-08T08:51:00Z,42.805,6.029,13.3017,4.60084,2469.923,2022-1-08T10:52:30Z
2022-01-08T08:54:03Z,42.805,6.029,13.3021,4.60072,2469.947,2022-1-08T10:55:33Z
2022-01-08T08:57:06Z,42.805,6.029,13.3009,4.60079,2469.9,2022-1-08T10:58:36Z
2022-01-08T09:00:09Z,42.805,6.029,13.3014,4.60085,2469.947,2022-1-08T11:01:39Z
2022-01-08T09:03:12Z,42.805,6.029,13.3010,4.60101,2469.9,2022-1-08T11:04:43Z
2022-01-08T09:06:15Z,42.805,6.029,13.3014,4.60098,2469.947,2022-1-08T11:07:46Z
2022-01-08T09:09:18Z,42.805,6.029,13.3039,4.60116,2469.984,2022-1-08T11:10:49Z
2022-01-08T09:12:21Z,42.805,6.029,13.3018,4.60101,2469.937,2022-1-08T11:13:52Z
2022-01-08T09:15:25Z,42.805,6.029,13.3015,4.60097,2469.96,2022-1-08T11:16:55Z
2022-01-08T09:18:28Z,42.805,6.029,13.3026,4.60108,2469.97,2022-1-08T11:19:58Z
2022-01-08T09:21:31Z,42.805,6.029,13.3031,4.60089,2469.947,2022-1-08T11:23:01Z
2022-01-08T09:24:34Z,42.805,6.029,13.3036,4.60102,2469.947,2022-1-08T11:26:04Z
2022-01-08T09:27:37Z,42.805,6.029,13.3027,4.60141,2469.947,2022-1-08T11:29:08Z
2022-01-08T09:30:40Z,42.805,6.029,13.3026,4.60117,2469.984,2022-1-08T11:32:11Z
2022-01-08T09:33:43Z,42.805,6.029,13.3024,4.60097,2469.96,2022-1-08T11:35:14Z
2022-01-08T09:36:46Z,42.805,6.029,13.3026,4.60089,2469.984,2022-1-08T11:38:17Z
2022-01-08T09:39:50Z,42.805,6.029,13.3029,4.60097,2469.984,2022-1-08T11:41:20Z
2022-01-08T09:42:53Z,42.805,6.029,13.3040,4.60108,2469.947,2022-1-08T11:44:23Z
2022-01-08T09:45:56Z,42.805,6.029,13.3033,4.60110,2469.96,2022-1-08T11:47:26Z
2022-01-08T09:48:59Z,42.805,6.029,13.3029,4.60109,2469.947,2022-1-08T11:50:29Z
2022-01-08T09:52:02Z,42.805,6.029,13.3019,4.60087,2469.97,2022-1-08T11:53:33Z
2022-01-08T09:55:05Z,42.805,6.029,13.3021,4.60106,2469.984,2022-1-08T11:56:36Z
2022-01-08T09:58:08Z,42.805,6.029,13.3021,4.60102,2469.984,2022-1-08T11:59:39Z
2022-01-08T10:01:11Z,42.805,6.029,13.3015,4.60126,2470.007,2022-1-08T12:02:42Z
2022-01-08T10:04:15Z,42.805,6.029,13.3011,4.60087,2469.993,2022-1-08T12:05:45Z
2022-01-08T10:07:18Z,42.805,6.029,13.3008,4.60062,2469.97,2022-1-08T12:08:48Z
2022-01-08T10:10:21Z,42.805,6.029,13.3005,4.60062,2470.007,2022-1-08T12:11:51Z
2022-01-08T10:13:24Z,42.805,6.029,13.3009,4.60073,2470.053,2022-1-08T12:14:54Z
2022-01-08T10:16:27Z,42.805,6.029,13.3015,4.60087,2469.97,2022-1-08T12:17:57Z
2022-01-08T10:19:30Z,42.805,6.029,13.3006,4.60082,2469.984,2022-1-08T12:21:01Z
2022-01-08T10:22:33Z,42.805,6.029,13.3005,4.60081,2469.993,2022-1-08T12:24:04Z
2022-01-08T10:25:36Z,42.805,6.029,13.3009,4.60092,2470.007,2022-1-08T12:27:07Z
2022-01-08T10:28:40Z,42.805,6.029,13.3008,4.60074,2470.227,2022-1-08T12:30:10Z
2022-01-08T10:31:43Z,42.805,6.029,13.3003,4.60070,2470.147,2022-1-08T12:33:13Z
2022-01-08T10:34:46Z,42.805,6.029,13.3011,4.60056,2470.087,2022-1-08T12:36:16Z
2022-01-08T10:37:49Z,42.805,6.029,13.3009,4.60058,2470.017,2022-1-08T12:39:19Z
2022-01-08T10:40:52Z,42.805,6.029,13.3015,4.60062,2470.063,2022-1-08T12:42:22Z
2022-01-08T10:43:55Z,42.805,6.029,13.3013,4.60078,2470.087,2022-1-08T12:45:26Z
2022-01-08T10:46:58Z,42.805,6.029,13.3031,4.60094,2470.04,2022-1-08T12:48:29Z
2022-01-08T10:50:01Z,42.805,6.029,13.3022,4.60119,2470.03,2022-1-08T12:51:32Z
2022-01-08T10:53:05Z,42.805,6.029,13.3012,4.60088,2470.03,2022-1-08T12:54:35Z
2022-01-08T10:56:08Z,42.805,6.029,13.3008,4.60066,2470.017,2022-1-08T12:57:38Z
2022-01-08T10:59:11Z,42.805,6.029,13.3018,4.60076,2470.03,2022-1-08T13:00:41Z
2022-01-08T11:02:14Z,42.805,6.029,13.3015,4.60072,2470.053,2022-1-08T13:03:44Z
2022-01-08T11:05:17Z,42.805,6.029,13.3015,4.60070,2470.053,2022-1-08T13:06:47Z
2022-01-08T11:08:20Z,42.805,6.029,13.3010,4.60074,2469.993,2022-1-08T13:09:51Z
2022-01-08T11:11:23Z,42.805,6.029,13.3005,4.60087,2470.017,2022-1-08T13:12:54Z
2022-01-08T11:14:26Z,42.805,6.029,13.3008,4.60076,2469.993,2022-1-08T13:15:57Z
2022-01-08T11:17:30Z,42.805,6.029,13.3016,4.60087,2470.017,2022-1-08T13:19:00Z
2022-01-08T11:20:33Z,42.805,6.029,13.3006,4.60096,2470.007,2022-1-08T13:22:03Z
2022-01-08T11:23:36Z,42.805,6.029,13.3005,4.60072,2470.03,2022-1-08T13:25:06Z
2022-01-08T11:26:39Z,42.805,6.029,13.3008,4.60069,2470.007,2022-1-08T13:28:09Z
2022-01-08T11:29:42Z,42.805,6.029,13.3007,4.60075,2470.017,2022-1-08T13:31:12Z
2022-01-08T11:32:45Z,42.805,6.029,13.3002,4.60079,2470.017,2022-1-08T13:34:16Z
2022-01-08T11:35:48Z,42.805,6.029,13.3008,4.60073,2470.017,2022-1-08T13:37:19Z
2022-01-08T11:38:51Z,42.805,6.029,13.3006,4.60060,2469.97,2022-1-08T13:40:22Z
2022-01-08T11:41:54Z,42.805,6.029,13.3006,4.60092,2469.947,2022-1-08T13:43:25Z
2022-01-08T11:44:58Z,42.805,6.029,13.3006,4.60085,2470.007,2022-1-08T13:46:28Z
2022-01-08T11:48:01Z,42.805,6.029,13.3039,4.60087,2469.993,2022-1-08T13:49:31Z
2022-01-08T11:51:04Z,42.805,6.029,13.3018,4.60090,2469.97,2022-1-08T13:52:34Z
2022-01-08T11:54:07Z,42.805,6.029,13.3021,4.60085,2469.984,2022-1-08T13:55:37Z
2022-01-08T11:57:10Z,42.805,6.029,13.3006,4.60082,2469.984,2022-1-08T13:58:41Z
2022-01-08T12:00:13Z,42.805,6.029,13.3026,4.60094,2469.947,2022-1-08T14:01:44Z
2022-01-08T12:03:16Z,42.805,6.029,13.3009,4.60086,2470.007,2022-1-08T14:04:47Z
2022-01-08T12:06:19Z,42.805,6.029,13.3012,4.60072,2470.171,2022-1-08T14:07:50Z
2022-01-08T12:09:23Z,42.805,6.029,13.3006,4.60094,2469.984,2022-1-08T14:10:53Z
2022-01-08T12:12:26Z,42.805,6.029,13.3015,4.60077,2469.984,2022-1-08T14:13:56Z
2022-01-08T12:15:29Z,42.805,6.029,13.3011,4.60080,2469.984,2022-1-08T14:16:59Z
2022-01-08T12:18:32Z,42.805,6.029,13.3010,4.60070,2469.984,2022-1-08T14:20:02Z
2022-01-08T12:21:35Z,42.805,6.029,13.3019,4.60076,2469.97,2022-1-08T14:23:06Z
2022-01-08T12:24:38Z,42.805,6.029,13.3012,4.60069,2469.993,2022-1-08T14:26:09Z
2022-01-08T12:27:41Z,42.805,6.029,13.3025,4.60062,2469.97,2022-1-08T14:29:12Z
2022-01-08T12:30:44Z,42.805,6.029,13.3010,4.60058,2469.947,2022-1-08T14:32:15Z
2022-01-08T12:33:48Z,42.805,6.029,13.3009,4.60051,2469.96,2022-1-08T14:35:18Z
2022-01-08T12:36:51Z,42.805,6.029,13.3017,4.60047,2469.97,2022-1-08T14:38:21Z
2022-01-08T12:39:54Z,42.805,6.029,13.3015,4.60064,2469.984,2022-1-08T14:41:24Z
2022-01-08T12:42:57Z,42.805,6.029,13.3001,4.60046,2469.97,2022-1-08T14:44:27Z
2022-01-08T12:46:00Z,42.805,6.029,13.3004,4.60062,2469.97,2022-1-08T14:47:31Z
2022-01-08T12:49:03Z,42.805,6.029,13.3009,4.60052,2470.03,2022-1-08T14:50:34Z
2022-01-08T12:52:06Z,42.805,6.029,13.3008,4.60064,2470.31,2022-1-08T14:53:37Z
2022-01-08T12:55:09Z,42.805,6.029,13.3009,4.60062,2470.264,2022-1-08T14:56:40Z
2022-01-08T12:58:13Z,42.805,6.029,13.3021,4.60086,2470.217,2022-1-08T14:59:43Z
2022-01-08T13:01:16Z,42.805,6.029,13.3007,4.60062,2470.017,2022-1-08T15:02:46Z
2022-01-08T13:04:19Z,42.805,6.029,13.3014,4.60058,2469.993,2022-1-08T15:05:49Z
2022-01-08T13:07:22Z,42.805,6.029,13.3002,4.60064,2469.96,2022-1-08T15:08:52Z
2022-01-08T13:10:25Z,42.805,6.029,13.3011,4.60055,2470.007,2022-1-08T15:11:56Z
2022-01-08T13:13:28Z,42.805,6.029,13.3002,4.60070,2469.923,2022-1-08T15:14:59Z
2022-01-08T13:16:31Z,42.805,6.029,13.3003,4.60076,2469.96,2022-1-08T15:18:02Z
2022-01-08T13:19:34Z,42.805,6.029,13.3007,4.60063,2469.984,2022-1-08T15:21:05Z
2022-01-08T13:22:38Z,42.805,6.029,13.3012,4.60084,2469.947,2022-1-08T15:24:08Z
2022-01-08T13:25:41Z,42.805,6.029,13.3004,4.60069,2469.947,2022-1-08T15:27:11Z
2022-01-08T13:28:44Z,42.805,6.029,13.3011,4.60063,2469.96,2022-1-08T15:30:14Z
2022-01-08T13:31:47Z,42.805,6.029,13.3000,4.60058,2469.97,2022-1-08T15:33:17Z
2022-01-08T13:34:50Z,42.805,6.029,13.3008,4.60043,2469.984,2022-1-08T15:36:21Z
2022-01-08T13:37:53Z,42.805,6.029,13.3006,4.60054,2469.96,2022-1-08T15:39:24Z
2022-01-08T13:40:56Z,42.805,6.029,13.3012,4.60057,2469.96,2022-1-08T15:42:27Z
2022-01-08T13:43:59Z,42.805,6.029,13.3006,4.60046,2469.97,2022-1-08T15:45:30Z
2022-01-08T13:47:03Z,42.805,6.029,13.3015,4.60083,2469.97,2022-1-08T15:48:33Z
2022-01-08T13:50:06Z,42.805,6.029,13.3006,4.60087,2469.947,2022-1-08T15:51:36Z
2022-01-08T13:53:09Z,42.805,6.029,13.3009,4.60075,2469.937,2022-1-08T15:54:39Z
2022-01-08T13:56:12Z,42.805,6.029,13.3012,4.60057,2469.96,2022-1-08T15:57:42Z
2022-01-08T13:59:15Z,42.805,6.029,13.3011,4.60061,2469.984,2022-1-08T16:00:46Z
2022-01-08T14:02:18Z,42.805,6.029,13.3009,4.60060,2469.96,2022-1-08T16:03:49Z
2022-01-08T14:05:21Z,42.805,6.029,13.3006,4.60073,2470.03,2022-1-08T16:06:52Z
2022-01-08T14:08:24Z,42.805,6.029,13.3008,4.60068,2469.97,2022-1-08T16:09:55Z
2022-01-08T14:11:28Z,42.805,6.029,13.3006,4.60070,2469.923,2022-1-08T16:12:58Z
2022-01-08T14:14:31Z,42.805,6.029,13.3008,4.60067,2469.937,2022-1-08T16:16:01Z
2022-01-08T14:17:34Z,42.805,6.029,13.3007,4.60062,2469.97,2022-1-08T16:19:04Z
2022-01-08T14:20:37Z,42.805,6.029,13.3004,4.60067,2470.017,2022-1-08T16:22:07Z
2022-01-08T14:23:40Z,42.805,6.029,13.3011,4.60058,2469.937,2022-1-08T16:25:10Z
2022-01-08T14:26:43Z,42.805,6.029,13.3004,4.60063,2469.937,2022-1-08T16:28:14Z
2022-01-08T14:29:46Z,42.805,6.029,13.3004,4.60085,2469.937,2022-1-08T16:31:17Z
2022-01-08T14:32:49Z,42.805,6.029,13.3015,4.60067,2469.923,2022-1-08T16:34:20Z
2022-01-08T14:35:53Z,42.805,6.029,13.3009,4.60072,2470.007,2022-1-08T16:37:23Z
2022-01-08T14:38:56Z,42.805,6.029,13.3012,4.60102,2469.914,2022-1-08T16:40:26Z
2022-01-08T14:41:59Z,42.805,6.029,13.3026,4.60085,2469.9,2022-1-08T16:43:29Z
2022-01-08T14:45:02Z,42.805,6.029,13.3009,4.60087,2469.9,2022-1-08T16:46:32Z
2022-01-08T14:48:05Z,42.805,6.029,13.3004,4.60072,2469.914,2022-1-08T16:49:35Z
2022-01-08T14:51:08Z,42.805,6.029,13.3009,4.60102,2469.923,2022-1-08T16:52:39Z
2022-01-08T14:54:11Z,42.805,6.029,13.3006,4.60099,2469.9,2022-1-08T16:55:42Z
2022-01-08T14:57:14Z,42.805,6.029,13.3006,4.60076,2469.97,2022-1-08T16:58:45Z
2022-01-08T15:00:18Z,42.805,6.029,13.3023,4.60087,2469.937,2022-1-08T17:01:48Z
2022-01-08T15:03:21Z,42.805,6.029,13.3011,4.60073,2469.914,2022-1-08T17:04:51Z
2022-01-08T15:06:24Z,42.805,6.029,13.3009,4.60062,2469.97,2022-1-08T17:07:54Z
2022-01-08T15:09:27Z,42.805,6.029,13.3011,4.60102,2469.923,2022-1-08T17:10:57Z
2022-01-08T15:12:30Z,42.805,6.029,13.3005,4.60064,2470.007,2022-1-08T17:14:00Z
2022-01-08T15:15:33Z,42.805,6.029,13.3005,4.60072,2469.876,2022-1-08T17:17:04Z